Weather History for College Park, MD

Change the Weather History Date:

Friday, December 7, 2012

  Actual Average Record
Temperature  
Mean Temperature 42 °F -  
Max Temperature 52 °F 50 °F 71 °F (1956)
Min Temperature 32 °F 30 °F 16 °F (1977)
Degree Days  
Heating Degree Days 23    
Moisture  
Dew Point 40 °F    
Average Humidity 83    
Maximum Humidity 98    
Minimum Humidity 67    
Precipitation  
Precipitation 0.00 in - - ()
Sea Level Pressure  
Sea Level Pressure 30.13 in    
Wind  
Wind Speed 1 mph (South)    
Max Wind Speed 6 mph    
Max Gust Speed -    
Visibility 10 miles    
Events      
Averages and records for this station are not official NWS values.
T = Trace of Precipitation, MM = Missing Value Source: NWS Daily Summary

Daily Weather History Graph

Daily Weather History Graph

Search for Another Location

Airport:

Trip Planner

Search our weather history database for the weather conditions in past years. The results will help you decide how hot, cold, wet, or windy it might be!

Date:

Astronomy

Dec. 07, 2012 Rise Set
Actual Time 7:13 AM EST 4:45 PM EST
Civil Twilight 6:43 AM EST 5:14 PM EST
Nautical Twilight 6:10 AM EST 5:48 PM EST
Astronomical Twilight 5:38 AM EST 6:20 PM EST
Moon 12:33 AM EST (12/7) 12:38 PM EST (12/7)
Length of Visible Light 10h 31m
Length of Day
9h 31m
Last Quarter, 39% of the Moon is Illuminated
Dec 7
Last Quarter
Dec 13
New
Dec 20
First Quarter
Dec 28
Full
Jan 4
Last Quarter

Hourly Weather History & Observations

Time (EST) Temp. Windchill Dew Point Humidity Pressure Visibility Wind Dir Wind Speed Gust Speed Precip Events Conditions
12:15 AM 32.9 °F - 30.2 °F 90% 30.26 in 10.0 mi Calm Calm - N/A   Mostly Cloudy
12:35 AM 33.3 °F - 30.2 °F 89% 30.25 in 10.0 mi Calm Calm - N/A   Mostly Cloudy
12:55 AM 34.0 °F - 30.7 °F 88% 30.25 in 10.0 mi Calm Calm - N/A   Overcast
1:15 AM 34.7 °F - 31.3 °F 87% 30.24 in 10.0 mi Calm Calm - N/A   Mostly Cloudy
1:40 AM 34.7 °F - 31.1 °F 87% 30.24 in 10.0 mi Calm Calm - N/A   Mostly Cloudy
2:00 AM 35.2 °F - 32.0 °F 88% 30.23 in 10.0 mi Calm Calm - N/A   Overcast
2:20 AM 35.8 °F - 32.0 °F 86% 30.23 in 10.0 mi Calm Calm - N/A   Overcast
2:40 AM 36.1 °F - 32.9 °F 88% 30.23 in 10.0 mi Calm Calm - N/A   Mostly Cloudy
3:05 AM 37.4 °F - 34.0 °F 87% 30.22 in 10.0 mi Calm Calm - N/A   Overcast
3:25 AM 37.8 °F - 33.8 °F 86% 30.21 in 10.0 mi Calm Calm - N/A   Overcast
3:45 AM 37.6 °F - 34.0 °F 87% 30.20 in 10.0 mi Calm Calm - N/A   Mostly Cloudy
4:05 AM 37.4 °F - 34.3 °F 89% 30.20 in 10.0 mi Calm Calm - N/A   Scattered Clouds
4:30 AM 37.6 °F - 34.2 °F 87% 30.20 in 10.0 mi Calm Calm - N/A   Mostly Cloudy
4:50 AM 38.5 °F - 35.6 °F 89% 30.20 in 10.0 mi Calm Calm - N/A   Overcast
5:10 AM 39.2 °F - 34.9 °F 84% 30.19 in 10.0 mi Calm Calm - N/A   Overcast
5:30 AM 39.7 °F - 34.9 °F 83% 30.19 in 10.0 mi Calm Calm - N/A   Overcast
5:55 AM 40.1 °F - 35.4 °F 83% 30.19 in 10.0 mi Calm Calm - N/A   Overcast
6:15 AM 40.3 °F - 35.8 °F 84% 30.20 in 10.0 mi Calm Calm - N/A   Overcast
6:35 AM 40.3 °F - 37.0 °F 88% 30.19 in 10.0 mi Calm Calm - N/A   Overcast
6:55 AM 41.2 °F - 38.3 °F 89% 30.19 in 10.0 mi Calm Calm - N/A   Overcast
7:20 AM 41.9 °F 40.0 °F 38.3 °F 87% 30.19 in 7.0 mi SSE 3.5 mph - N/A   Overcast
7:40 AM 42.1 °F 40.2 °F 38.8 °F 88% 30.19 in 10.0 mi SSE 3.5 mph - N/A   Overcast
8:00 AM 42.1 °F - 38.8 °F 88% 30.18 in 10.0 mi Calm Calm - N/A   Overcast
8:20 AM 42.4 °F - 39.4 °F 89% 30.19 in 10.0 mi Calm Calm - N/A   Overcast
8:45 AM 42.3 °F - 40.8 °F 95% 30.18 in 10.0 mi Calm Calm - N/A   Overcast
9:05 AM 42.8 °F 41.1 °F 41.2 °F 94% 30.18 in 10.0 mi SSE 3.5 mph - N/A   Overcast
9:45 AM 43.7 °F - 40.6 °F 89% 30.19 in 10.0 mi Calm Calm - N/A   Overcast
10:10 AM 44.4 °F 42.0 °F 41.0 °F 88% 30.18 in 10.0 mi South 4.6 mph - N/A   Overcast
10:30 AM 45.0 °F 42.6 °F 41.2 °F 87% 30.17 in 10.0 mi SSE 4.6 mph - N/A   Overcast
11:10 AM 46.0 °F 43.1 °F 40.6 °F 81% 30.14 in 10.0 mi South 5.8 mph - N/A   Overcast
11:35 AM 47.8 °F - 40.5 °F 76% 30.13 in 10.0 mi South 4.6 mph - N/A   Overcast
11:55 AM 48.2 °F - 40.5 °F 75% 30.12 in 10.0 mi South 3.5 mph - N/A   Overcast
12:15 PM 48.6 °F - 40.3 °F 73% 30.11 in 10.0 mi SSW 4.6 mph - N/A   Overcast
12:35 PM 49.1 °F - 40.3 °F 72% 30.10 in 10.0 mi SW 4.6 mph - N/A   Overcast
1:00 PM 49.6 °F - 40.3 °F 70% 30.09 in 10.0 mi WSW 3.5 mph - N/A   Overcast
1:20 PM 49.6 °F - 40.1 °F 70% 30.09 in 10.0 mi Calm Calm - N/A   Overcast
1:40 PM 50.4 °F - 40.8 °F 70% 30.08 in 10.0 mi South 3.5 mph - N/A   Overcast
2:00 PM 50.7 °F - 41.2 °F 70% 30.07 in 10.0 mi Calm Calm - N/A   Overcast
2:25 PM 51.4 °F - 41.0 °F 68% 30.07 in 10.0 mi South 3.5 mph - N/A   Overcast
2:45 PM 52.2 °F - 41.5 °F 67% 30.06 in 10.0 mi South 5.8 mph - N/A   Overcast
3:00 PM 52.0 °F - 41.9 °F 69% 30.06 in 10.0 mi SSW 3.5 mph - N/A   Mostly Cloudy
3:25 PM 51.8 °F - 41.9 °F 69% 30.07 in 10.0 mi SW 3.5 mph - N/A   Mostly Cloudy
3:50 PM 51.8 °F - 41.9 °F 69% 30.06 in 10.0 mi Calm Calm - N/A   Overcast
4:10 PM 51.8 °F - 41.9 °F 69% 30.06 in 10.0 mi Calm Calm - N/A   Overcast
4:30 PM 51.4 °F - 42.4 °F 71% 30.06 in 10.0 mi Calm Calm - N/A   Overcast
4:50 PM 50.4 °F - 43.5 °F 77% 30.05 in 10.0 mi Calm Calm - N/A   Overcast
5:15 PM 50.7 °F - 43.2 °F 75% 30.06 in 10.0 mi Calm Calm - N/A   Overcast
5:35 PM 50.4 °F - 43.3 °F 77% 30.06 in 10.0 mi Calm Calm - N/A   Overcast
5:55 PM 50.0 °F - 44.6 °F 82% 30.06 in 10.0 mi Calm Calm - N/A   Overcast
6:15 PM 50.0 °F - 45.0 °F 83% 30.05 in 10.0 mi Calm Calm - N/A   Overcast
6:40 PM 50.7 °F - 45.0 °F 81% 30.05 in 10.0 mi Calm Calm - N/A   Overcast
7:00 PM 51.3 °F - 45.9 °F 82% 30.05 in 10.0 mi Calm Calm - N/A   Overcast
7:20 PM 50.7 °F - 46.2 °F 85% 30.04 in 10.0 mi Calm Calm - N/A   Overcast
7:40 PM 50.9 °F - 46.2 °F 84% 30.04 in 10.0 mi Calm Calm - N/A   Overcast
8:25 PM 50.9 °F - 46.6 °F 85% 30.04 in 10.0 mi Calm Calm - N/A   Overcast
8:45 PM 50.7 °F - 47.3 °F 88% 30.03 in 10.0 mi Calm Calm - N/A   Overcast
9:05 PM 51.3 °F - 47.3 °F 86% 30.03 in 10.0 mi Calm Calm - N/A   Overcast
9:30 PM 50.5 °F - 48.2 °F 92% 30.02 in 10.0 mi Calm Calm - N/A   Overcast
9:50 PM 50.2 °F - 48.2 °F 93% 30.02 in 10.0 mi Calm Calm - N/A   Overcast
10:55 PM 50.2 °F - 49.1 °F 96% 30.00 in 7.0 mi Calm Calm - N/A   Overcast
11:15 PM 49.8 °F - 49.3 °F 98% 29.99 in 10.0 mi Calm Calm - N/A   Overcast
11:35 PM 50.0 °F - 49.5 °F 98% 29.99 in 10.0 mi Calm Calm - N/A   Overcast
11:55 PM 50.0 °F - 49.5 °F 98% 29.98 in 10.0 mi Calm Calm - N/A   Overcast